Location: Unspecified
(38.9820°N, 94.4650°W)
Time: 14:51:17
(UTC-06:00)

ISS - Visible Passes

Search period start: 12 November 2018 00:00
Search period end: 22 November 2018 00:00
Orbit: 402 x 409 km, 51.6° (Epoch: 13 November)

Date Brightness Start Highest point End Pass type
(mag) Time Alt. Az. Time Alt. Az. Time Alt. Az.
12 Nov -1.9 05:02:30 23° NNE 05:02:31 23° NNE 05:05:12 10° E visible
13 Nov -3.9 05:45:30 27° NW 05:47:09 88° NE 05:50:25 10° SE visible
14 Nov -2.3 04:55:52 36° ENE 04:55:52 36° ENE 04:58:13 10° ESE visible
14 Nov -1.9 06:29:02 10° W 06:31:18 17° SW 06:33:33 10° S visible
15 Nov -3.0 05:39:01 32° WSW 05:39:23 34° SW 05:42:22 10° SSE visible
16 Nov -1.4 04:49:32 19° SE 04:49:32 19° SE 04:50:38 10° SE visible
17 Nov -1.3 05:32:49 11° SSW 05:32:49 11° SSW 05:33:07 10° SSW visible
21 Nov -1.7 18:39:43 10° S 18:40:54 17° SSE 18:40:54 17° SSE visible
